Location: Hochstatterhof
(48.7256°N, 10.3487°E)
Time: 01:26:30
(UTC+00:00)

Lacrosse 5 rocket - Pass Details

Date: 26 September 2023
Orbit: 452 x 591 km, 57.0° (Epoch: 04 December)

Event Time Altitude Azimuth Distance (km) Brightness Sun altitude
Exits shadow 04:12:12 - 212° (SSW) 2,328 4.1 -10.4°
Reaches altitude 10° 04:13:33 10° 207° (SSW) 1,804 3.6 -10.1°
Maximum altitude 04:17:25 42° 136° (SE) 753 2.3 -9.5°
Drops below altitude 10° 04:21:07 10° 65° (ENE) 1,729 5.3 -8.9°
Sets 04:23:19 0° 58° (ENE) 2,591 6.1 -8.5°
